Other Surface Observations
Issued by NWS

Home | Current Version | Previous Version | Text Only | Print | Product List | Glossary On
Versions: 1 2 3 4 5 6 7 8 9 10 11 12 13 14 15 16 17 18 19 20 21 22 23 24 25 26 27 28 29 30 31 32 33 34 35 36 37 38 39 40 41 42 43 44 45 46 47 48 49 50
000
SXUS52 KTAE 292318
OSOTAE
OSOTAE
North Florida/South Alabama/Southwest Georgia Weather Roundup
National Weather Service Tallahassee Florida
700 PM EDT SAT AUG 29 2015

Note: "fair" indicates few or no clouds below 12,000 feet with no
significant weather and/or obstructions to visibility.

!FLZ017-115-028-034-025-300000
...North Florida...

CITY           SKY/WX    TMP DP  RH WIND       PRES   REMARKS
TALLAHASSEE    CLOUDY    82  72  71 SE5       30.03S
APALACHICOLA   CLOUDY    78  73  84 E3        30.02S
PERRY          CLOUDY   N/A N/A N/A NE3       30.05S
CROSS CITY       N/A     79  76  90 NE5       30.04R
JACKSONVILLE   CLOUDY    81  74  79 E7        30.06R
$$

!FLZ112-006-005-002-011-300000
...Florida Panhandle...

CITY           SKY/WX    TMP DP  RH WIND       PRES   REMARKS
MARIANNA       CLOUDY    75  73  93 CALM      30.02F
BONIFAY        FAIR      76  69  79 NE3       30.04F
PANAMA CITY NW CLOUDY    77  71  82 N5        30.01F
TYNDALL AFB    HAZE      79  70  73 NW12      30.02R VSB 1/2
TYND DRONE APT MOCLDY    79  72  78 NE9       30.02R
DE FUNIAK SPR  HVY RAIN  72  71  98 SW3       30.08R VSB 1/2
EGLIN AFB      PTSUNNY   83  72  68 S6        30.02S
DESTIN         MOSUNNY   83  73  72 SE6       30.02S
HURLBURT       LGT RAIN  82  72  69 S7        30.01S
CRESTVIEW      CLOUDY    74  73  97 S5        30.04F
PENSACOLA      SUNNY     84  71  65 SE8       30.00F
$$

!ALZ063-066-300000
...South Alabama...

CITY           SKY/WX    TMP DP  RH WIND       PRES   REMARKS
DOTHAN         CLOUDY    76  68  76 E5        30.08S
OZARK CAIRNS   PTSUNNY   77  68  75 NE7       30.04F
FT RUCKER HELI CLOUDY    78  67  68 CALM      30.04S
RUCKER HELI 3  PTSUNNY   77  67  71 E3        30.06F
RUCKER HELI 2  NOT AVBL
FLORALA APT    TSTM      72  70  94 NE5       30.09R FOG
ANDALUSIA      CLOUDY    80  67  64 S8G16     30.06R THUNDER
TROY           CLOUDY    76  70  82 W5        30.07S
EUFALA         FAIR      77  74  90 CALM      30.05F
MOBILE         PTSUNNY   85  72  65 SE13      30.02S HX  91
$$

!GAZ120>161-300000
...Southwest and South Central Georgia...

CITY           SKY/WX    TMP DP  RH WIND       PRES   REMARKS
THOMASVILLE    FAIR      75  72  88 E5        30.06S
BAINBRIDGE     CLOUDY    77  72  83 N3        30.03S
MOODY AFB      PTSUNNY   74  71  89 E6        30.06S
VALDOSTA       CLOUDY    76  72  87 E5        30.07R
MOULTRIE       PTSUNNY   75  72  88 E5        30.06S
BLAKELY        CLOUDY    77  73  88 CALM      30.04F
ALBANY         CLOUDY    80  71  74 E7        30.07S
TIFTON         PTSUNNY   75  73  96 E7        30.06S
FITZGERALD     FAIR      75  74  95 E7        30.09S
CORDELE        FAIR      80  73  79 E7        30.07S
AMERICUS       MOCLDY    79  72  78 E6        30.08S
HOMERVILLE     PTSUNNY   75  73  94 E5        30.08R
$$

!GMZ750-755-770-775-300000
...Coastal and Buoy Obs...

STATION/POSITION TIME  TEMP    WIND        PRES    VSBY  WAVE
                       AIR SEA DIR/SP/G                  HT/PER
                 (UTC) (F)     (DEG/KT/KT) (MB)    (MI)  (FT/S)
KEATON BEACH     2300   76      70/  5/  6 1017.7R
CEDAR KEY        2300   82      70/ 12/ 13 1016.9F
C TOWER          2300   80     120/  5/  6 1016.3R
APALACHICOLA BUO 2250   80 85   80/  6/  8 1015.8F         1/ 5
PANAMA CITY BUOY 2250   81 85  100/  4/  6 1016.5F         2/ 5
MOBILE BUOY      2250   84 88  190/  6/  8 1016.2F         3/ 5
ORANGE BCH AL BU 2250   83 86  150/ 10/ 12 1015.4F         3/ 5
$$



USA.gov is the U.S. government's official web portal to all federal, state and local government web resources and services.